Location: Asheville, NC
(35.6000°N, 82.5500°W)
Time: 01:33:17
(UTC-04:00)

AO-7 - Pass Details

Date: 03 January 2018
Orbit: 1439 x 1459 km, 101.7° (Epoch: 25 April)

Event Time Altitude Azimuth Distance (km) Brightness Sun altitude
Rises 02:33:24 0° 34° (NE) 4,569 ? -61.3°
Reaches altitude 10° 02:37:22 10° 51° (NE) 3,585 ? -60.5°
Enters shadow 02:37:56 11° 55° (NE) 3,468 ? -60.4°
